Skip Page Navigation
NASA JPL Caltech
NASA Logo - Jet Propulsion Laboratory + View the NASA Portal
+ Center for Near-Earth Object Studies
JPL Home Earth Solar System Stars & Galaxies Technology
JPL Solar System Dynamics
BODIES ORBITS EPHEMERIDES TOOLS PHYSICAL DATA DISCOVERY FAQ SITE MAP
IMPORTANT: The SSD Announcement email list is now available. Major changes are coming in the near future, including possible hostname and/or URL changes. To be notified of such changes, subscribe to this email list.

Please visit this page for more details.


JPL Small-Body Database Browser
Search: [ help ]  
233394 (2006 FT17)
Classification: Main-belt Asteroid          SPK-ID: 2233394
Ephemeris | Orbit Diagram | Orbital Elements | Mission Design | Physical Parameters | Discovery Circumstances | Close-Approach Data ]

[ show orbit diagram ]
Orbital Elements at Epoch 2458600.5 (2019-Apr-27.0) TDB
Reference: JPL 12 (heliocentric ecliptic J2000)
 Element Value Uncertainty (1-sigma)   Units 
e .1038442717195144 5.8671e-08  
a 2.71731832864987 2.6769e-08 au
q 2.435140385781136 1.675e-07 au
i 4.386484471243668 7.7452e-06 deg
node 174.9559024172834 7.8071e-05 deg
peri 309.2630271272304 8.7298e-05 deg
M 39.74391305466518 3.7656e-05 deg
tp 2458419.875221537908
(2018-Oct-28.37522154)
0.00017058 TDB
period 1636.097586991887
4.48
2.4176e-05
6.619e-08
d
yr
n .2200357746764314 3.2514e-09 deg/d
Q 2.999496271518604 2.9549e-08 au
  Orbit Determination Parameters
   # obs. used (total)      229  
   data-arc span      6640 days (18.18 yr)  
   first obs. used      2001-02-22  
   last obs. used      2019-04-29  
   planetary ephem.      DE431  
   SB-pert. ephem.      SB431-N16  
   condition code      0  
   norm. resid. RMS      .52781  
   source      ORB  
   producer      Otto Matic  
   solution date      2019-Jul-14 07:06:02  

Additional Information
 Earth MOID = 1.45372 au 
 Jupiter MOID = 2.0593 au 
 T_jup = 3.348 
[ show covariance matrix ]

Ephemeris | Orbit Diagram | Orbital Elements | Mission Design | Physical Parameters | Discovery Circumstances | Close-Approach Data ]

Physical Parameter Table
Parameter Symbol Value Units Sigma Reference Notes
absolute magnitude H 16.3   n/a MPO427342  

233394 (2006 FT17)          Discovered 2006-Mar-23 by Spacewatch at Kitt Peak
Reference: 20100228/Numbers.arcLast Updated: 2010-03-03

[ show close-approach data ]
Alternate Designations
 2006 FT17 = 2007 LN29 
Ephemeris | Orbit Diagram | Orbital Elements | Mission Design | Physical Parameters | Discovery Circumstances | Close-Approach Data ]
ABOUT SSD CREDITS/AWARDS PRIVACY/COPYRIGHT GLOSSARY LINKS
FirstGov 2019-Dec-07 09:26 UT
(server date/time)  
NASA Home Page
Site Manager:   Ryan S. Park
Webmaster  Alan B. Chamberlin